When you browse on this site, cookies collect data to enhance your experience and personalize the content and advertising you see.
Visit our Privacy Policy to learn more. By continuing to use the site, you agree to this use of cookies and data.
  • In Netherlands
  • List of Countries
  • For 7 days
  • Water Temperature
  • Weather Map
  • Weather Widgets
  • user-avatar
    Login

    Hourly Weather Kingston upon Thames

    Today, 24 August, Saturday

    Time Temperature Precipitation Wind Pressure Humidity
    00:00 +18°C° 0 mm 1 mps 764 mmHg 66%
    01:00 +18°C° 0 mm 1 mps 764 mmHg 67%
    02:00 +18°C° 0 mm 1 mps 763 mmHg 68%
    03:00 +16°C° 0 mm 1 mps 763 mmHg 69%
    04:00 +18°C° 0 mm 1 mps 763 mmHg 70%
    05:00 +18°C° 0 mm 1 mps 763 mmHg 70%
    06:00 +18°C° 0 mm 1 mps 762 mmHg 70%
    07:00 +20°C° 0 mm 1 mps 763 mmHg 65%
    08:00 +22°C° 0 mm 1 mps 763 mmHg 60%
    09:00 +24°C° 0 mm 2 mps 763 mmHg 55%
    10:00 +25°C° 0 mm 2 mps 763 mmHg 51%
    11:00 +27°C° 0 mm 2 mps 762 mmHg 47%
    12:00 +28°C° 0 mm 3 mps 762 mmHg 43%
    13:00 +28°C° 0 mm 3 mps 762 mmHg 42%
    14:00 +28°C° 0 mm 3 mps 762 mmHg 42%
    15:00 +28°C° 0 mm 3 mps 761 mmHg 42%
    16:00 +27°C° 0 mm 3 mps 761 mmHg 46%
    17:00 +26°C° 0 mm 2 mps 761 mmHg 51%
    18:00 +25°C° 0 mm 2 mps 760 mmHg 55%
    19:00 +24°C° 0 mm 2 mps 761 mmHg 58%
    20:00 +23°C° 0 mm 2 mps 761 mmHg 61%
    21:00 +21°C° 0 mm 1 mps 761 mmHg 65%
    22:00 +21°C° 0 mm 1 mps 761 mmHg 66%
    23:00 +21°C° 0 mm 1 mps 761 mmHg 67%

    Tomorrow, 25 August, Sunday

    Time Temperature Precipitation Wind Pressure Humidity
    00:00 +20°C° 0 mm 1 mps 761 mmHg 67%
    01:00 +20°C° 0 mm 1 mps 760 mmHg 68%
    02:00 +20°C° 0 mm 1 mps 760 mmHg 69%
    03:00 +19°C° 0 mm 1 mps 760 mmHg 69%
    04:00 +20°C° 0 mm 1 mps 760 mmHg 70%
    05:00 +20°C° 0 mm 1 mps 760 mmHg 70%
    06:00 +19°C° 0 mm 2 mps 760 mmHg 70%
    07:00 +21°C° 0 mm 2 mps 760 mmHg 65%
    08:00 +24°C° 0 mm 2 mps 761 mmHg 60%
    09:00 +26°C° 0 mm 2 mps 761 mmHg 55%
    10:00 +27°C° 0 mm 2 mps 761 mmHg 50%
    11:00 +29°C° 0 mm 2 mps 761 mmHg 45%
    12:00 +30°C° 0 mm 3 mps 761 mmHg 39%
    13:00 +31°C° 0 mm 3 mps 761 mmHg 39%
    14:00 +31°C° 0 mm 3 mps 761 mmHg 39%
    15:00 +31°C° 0 mm 3 mps 761 mmHg 39%
    16:00 +29°C° 0 mm 3 mps 761 mmHg 44%
    17:00 +28°C° 0 mm 3 mps 761 mmHg 49%
    18:00 +27°C° 0 mm 2 mps 761 mmHg 54%
    19:00 +25°C° 0 mm 2 mps 761 mmHg 57%
    20:00 +24°C° 0 mm 2 mps 762 mmHg 59%
    21:00 +22°C° 0 mm 1 mps 762 mmHg 62%
    22:00 +22°C° 0 mm 1 mps 762 mmHg 63%
    23:00 +21°C° 0 mm 1 mps 762 mmHg 64%

    Day after tomorrow, 26 August, Monday

    Time Temperature Precipitation Wind Pressure Humidity
    00:00 +21°C° 0 mm 1 mps 762 mmHg 65%
    01:00 +21°C° 0 mm 1 mps 761 mmHg 66%
    02:00 +21°C° 0 mm 1 mps 761 mmHg 67%
    03:00 +18°C° 0 mm 0 mps 761 mmHg 68%
    04:00 +20°C° 0 mm 1 mps 761 mmHg 68%
    05:00 +21°C° 0 mm 1 mps 761 mmHg 69%
    06:00 +21°C° 0 mm 1 mps 761 mmHg 69%
    07:00 +23°C° 0 mm 1 mps 761 mmHg 63%
    08:00 +25°C° 0 mm 1 mps 761 mmHg 57%
    09:00 +27°C° 0 mm 2 mps 761 mmHg 51%
    10:00 +28°C° 0 mm 2 mps 761 mmHg 47%
    11:00 +30°C° 0 mm 2 mps 761 mmHg 43%
    12:00 +31°C° 0 mm 3 mps 761 mmHg 38%
    13:00 +31°C° 0 mm 3 mps 761 mmHg 39%
    14:00 +33°C° 0 mm 3 mps 760 mmHg 39%
    15:00 +33°C° 0 mm 3 mps 760 mmHg 39%
    16:00 +30°C° 0 mm 3 mps 760 mmHg 43%
    17:00 +29°C° 0 mm 2 mps 760 mmHg 48%
    18:00 +28°C° 0 mm 2 mps 759 mmHg 53%
    19:00 +27°C° 0 mm 2 mps 760 mmHg 55%
    20:00 +25°C° 0 mm 2 mps 760 mmHg 58%
    21:00 +24°C° 0 mm 1 mps 760 mmHg 61%
    22:00 +24°C° 0 mm 1 mps 760 mmHg 62%
    23:00 +23°C° 0 mm 2 mps 760 mmHg 62%

    27 August, Tuesday

    Time Temperature Precipitation Wind Pressure Humidity
    00:00 +23°C° 0 mm 2 mps 759 mmHg 63%
    01:00 +23°C° 0 mm 1 mps 759 mmHg 63%
    02:00 +22°C° 0 mm 1 mps 759 mmHg 63%
    03:00 +22°C° 0 mm 1 mps 759 mmHg 64%
    04:00 +22°C° 0 mm 1 mps 759 mmHg 65%
    05:00 +22°C° 0 mm 1 mps 758 mmHg 66%
    06:00 +22°C° 0 mm 1 mps 758 mmHg 67%
    07:00 +23°C° 0 mm 1 mps 758 mmHg 62%
    08:00 +25°C° 0 mm 1 mps 758 mmHg 58%
    09:00 +26°C° 0 mm 1 mps 758 mmHg 53%
    10:00 +28°C° 0 mm 1 mps 758 mmHg 48%
    11:00 +30°C° 0 mm 1 mps 758 mmHg 44%
    12:00 +31°C° 0 mm 1 mps 758 mmHg 40%
    13:00 +31°C° 0 mm 1 mps 758 mmHg 39%
    14:00 +31°C° 0 mm 1 mps 758 mmHg 39%
    15:00 +32°C° 0 mm 1 mps 757 mmHg 38%
    16:00 +30°C° 0 mm 1 mps 757 mmHg 44%
    17:00 +29°C° 0 mm 2 mps 758 mmHg 50%
    18:00 +28°C° 0 mm 2 mps 758 mmHg 56%
    19:00 +26°C° 0.1 mm 2 mps 758 mmHg 62%
    20:00 +25°C° 0.1 mm 2 mps 758 mmHg 68%
    21:00 +23°C° 0.1 mm 2 mps 758 mmHg 75%
    22:00 +23°C° 0 mm 2 mps 758 mmHg 77%
    23:00 +21°C° 0 mm 2 mps 758 mmHg 80%

    28 August, Wednesday

    Time Temperature Precipitation Wind Pressure Humidity
    00:00 +21°C° 0 mm 2 mps 759 mmHg 82%
    01:00 +20°C° 0 mm 2 mps 758 mmHg 81%
    02:00 +20°C° 0 mm 2 mps 758 mmHg 80%
    03:00 +19°C° 0 mm 2 mps 758 mmHg 78%
    04:00 +19°C° 0 mm 2 mps 758 mmHg 76%
    05:00 +19°C° 0 mm 2 mps 759 mmHg 73%
    06:00 +19°C° 0 mm 2 mps 759 mmHg 70%
    07:00 +20°C° 0 mm 2 mps 759 mmHg 67%
    08:00 +21°C° 0 mm 2 mps 759 mmHg 63%
    09:00 +23°C° 0 mm 2 mps 759 mmHg 60%
    10:00 +24°C° 0 mm 2 mps 759 mmHg 55%
    11:00 +25°C° 0 mm 2 mps 759 mmHg 51%
    12:00 +26°C° 0 mm 2 mps 759 mmHg 47%
    13:00 +25°C° 0 mm 3 mps 760 mmHg 51%
    14:00 +25°C° 0 mm 4 mps 760 mmHg 55%
    15:00 +23°C° 0 mm 5 mps 760 mmHg 58%
    16:00 +22°C° 0 mm 4 mps 760 mmHg 61%
    17:00 +22°C° 0 mm 3 mps 760 mmHg 64%
    18:00 +21°C° 0 mm 2 mps 760 mmHg 67%
    19:00 +20°C° 0 mm 2 mps 760 mmHg 71%
    20:00 +19°C° 0 mm 2 mps 760 mmHg 74%
    21:00 +18°C° 0 mm 2 mps 760 mmHg 78%
    22:00 +18°C° 0 mm 2 mps 760 mmHg 78%
    23:00 +19°C° 0 mm 1 mps 760 mmHg 77%

    29 August, Thursday

    Time Temperature Precipitation Wind Pressure Humidity
    00:00 +19°C° 0 mm 1 mps 760 mmHg 77%
    01:00 +19°C° 0 mm 1 mps 760 mmHg 78%
    02:00 +18°C° 0 mm 1 mps 760 mmHg 79%
    03:00 +18°C° 0 mm 1 mps 760 mmHg 80%
    04:00 +16°C° 0 mm 0 mps 760 mmHg 81%
    05:00 +16°C° 0 mm 0 mps 760 mmHg 82%
    06:00 +16°C° 0 mm 0 mps 760 mmHg 82%
    07:00 +19°C° 0 mm 1 mps 760 mmHg 76%
    08:00 +21°C° 0 mm 1 mps 761 mmHg 70%
    09:00 +21°C° 0 mm 2 mps 761 mmHg 63%
    10:00 +23°C° 0 mm 2 mps 761 mmHg 60%
    11:00 +24°C° 0 mm 3 mps 761 mmHg 56%
    12:00 +25°C° 0 mm 3 mps 760 mmHg 52%
    13:00 +25°C° 0 mm 3 mps 760 mmHg 52%
    14:00 +25°C° 0 mm 3 mps 760 mmHg 52%
    15:00 +25°C° 0 mm 3 mps 760 mmHg 53%
    16:00 +24°C° 0 mm 3 mps 760 mmHg 56%
    17:00 +24°C° 0 mm 3 mps 760 mmHg 59%
    18:00 +22°C° 0 mm 3 mps 760 mmHg 62%
    19:00 +20°C° 0 mm 3 mps 760 mmHg 63%
    20:00 +19°C° 0 mm 3 mps 760 mmHg 65%
    21:00 +17°C° 0 mm 3 mps 761 mmHg 66%
    22:00 +17°C° 0 mm 2 mps 761 mmHg 67%
    23:00 +16°C° 0 mm 2 mps 761 mmHg 67%
    Show more